Flag for U.S.A. Weather past 2 weeks in Corvallis, Oregon, U.S.A.

Now
43 °F

Passing clouds.


Feels Like: 40 °F
Forecast: 41 / 45 °F
Wind: 5 mph from Southwest

Location: Corvallis Municipal

Current Time: Dec 28, 2014 at 5:54:45 AM

Latest Report: Dec 28, 2014 at 5:35 AM


Visibility: 10 mi

Pressure: 30.29 "Hg

Humidity: 81%

Dew point: 37 °F

Location of CorvallisLocation

Historic Weather in Corvallis — Graph

°F

Corvallis temperature yesterday

Maximum temperature yesterday: 48 °F (at 10:15 PM)
Minimum temperature yesterday: 37 °F (at 4:15 AM)
Average temperature yesterday: 42 °F

Past Weeks' High & Low Weather Summary

 TemperatureHumidityPressure
High59 °F (Dec 20, 10:55 PM)100% (Dec 13, 10:15 AM)30.40 "Hg (Dec 13, 10:15 AM)
Low36 °F (Dec 13, 6:35 AM)62% (Dec 25, 1:55 PM)29.70 "Hg (Dec 20, 1:55 PM)
Average47 °F85%30.07 "Hg
* Reported Dec 13 4:15 AM — Dec 28 4:35 AM, Corvallis, Weather by CustomWeather, © 2014

Note: Actual official high and low records may vary slightly from our data, if they occured in-between our weather recording intervals... More about our weather records

Advertising

Corvallis weather history for previous 24 hours

 ConditionsComfort  
Time TempWeatherWind HumidityBarometerVisibility
4:35 AM
Dec 28
45 °FMostly cloudy.5 mph81%30.29 "Hg10 mi
4:15 AM43 °FPartly cloudy.6 mph87%30.29 "Hg10 mi
3:55 AM45 °FMostly cloudy.8 mph81%30.29 "Hg10 mi
3:35 AM45 °FMostly cloudy.9 mph87%30.29 "Hg10 mi
3:15 AM45 °FMostly cloudy.9 mph87%30.29 "Hg10 mi
2:55 AM45 °FMostly cloudy.10 mph87%30.29 "Hg6 mi
2:35 AM45 °FPartly cloudy.6 mph87%30.29 "Hg10 mi
2:15 AM45 °FMostly cloudy.No wind87%30.29 "Hg10 mi
1:55 AM45 °FOvercast.No wind81%30.28 "Hg7 mi
1:35 AM45 °FMostly cloudy.5 mph81%30.28 "Hg10 mi
1:15 AM45 °FMostly cloudy.9 mph81%30.27 "Hg10 mi
12:55 AM43 °FOvercast.9 mph87%30.27 "Hg10 mi
12:35 AM43 °FPassing clouds.9 mph87%30.27 "Hg10 mi
12:15 AM45 °FPassing clouds.6 mph76%30.28 "Hg10 mi
11:55 PM
Dec 27
45 °FPassing clouds.8 mph81%30.28 "Hg10 mi
11:35 PM45 °FPassing clouds.8 mph81%30.27 "Hg10 mi
11:15 PM46 °FOvercast.8 mph82%30.27 "Hg10 mi
10:55 PM46 °FMostly cloudy.9 mph87%30.27 "Hg10 mi
10:35 PM48 °FOvercast.9 mph82%30.27 "Hg10 mi
10:15 PM48 °FMostly cloudy.12 mph87%30.27 "Hg9 mi
9:55 PM46 °FOvercast.No wind87%30.27 "Hg10 mi
9:35 PM46 °FPartly cloudy.3 mph87%30.26 "Hg10 mi
9:15 PM46 °FPartly cloudy.7 mph87%30.26 "Hg9 mi
8:55 PM46 °FMostly cloudy.7 mph87%30.26 "Hg7 mi
8:35 PM46 °FMostly cloudy.13 mph87%30.26 "Hg10 mi
8:15 PM46 °FOvercast.9 mph87%30.26 "Hg10 mi
7:35 PM46 °FPartly cloudy.12 mph87%30.25 "Hg9 mi
7:15 PM46 °FPartly cloudy.8 mph87%30.25 "Hg8 mi
6:55 PM46 °FPartly cloudy.10 mph87%30.26 "Hg8 mi
6:35 PM46 °FOvercast.10 mph87%30.25 "Hg4 mi
6:15 PM46 °FMostly cloudy.12 mph87%30.25 "Hg3 mi
5:55 PM46 °FMostly cloudy.13 mph87%30.24 "Hg7 mi
5:35 PM46 °FMostly cloudy.14 mph87%30.24 "Hg4 mi
5:15 PM45 °FMostly cloudy.12 mph93%30.24 "Hg5 mi
4:55 PM45 °FMostly cloudy.14 mph87%30.24 "Hg4 mi
4:35 PM45 °FCloudy.15 mph87%30.24 "Hg10 mi
4:15 PM45 °FMostly cloudy.13 mph87%30.24 "Hg10 mi
3:55 PM45 °FMore clouds than sun.14 mph87%30.24 "Hg10 mi
3:35 PM45 °FOvercast.16 mph87%30.25 "Hg10 mi
3:15 PM45 °FMostly cloudy.15 mph87%30.25 "Hg10 mi
2:55 PM45 °FMore clouds than sun.15 mph87%30.25 "Hg10 mi
2:35 PM45 °FBroken clouds.14 mph81%30.25 "Hg10 mi
2:15 PM43 °FCloudy.14 mph87%30.26 "Hg10 mi
1:55 PM43 °FCloudy.16 mph87%30.26 "Hg10 mi
1:35 PM43 °FOvercast.10 mph87%30.26 "Hg10 mi
1:15 PM43 °FPartly sunny.13 mph87%30.27 "Hg10 mi
12:55 PM43 °FBroken clouds.13 mph87%30.28 "Hg10 mi
12:35 PM43 °FMostly cloudy.10 mph87%30.29 "Hg10 mi
12:15 PM43 °FMostly cloudy.10 mph87%30.30 "Hg10 mi
11:55 AM43 °FMostly cloudy.10 mph81%30.31 "Hg10 mi
11:35 AM43 °FOvercast.10 mph81%30.32 "Hg10 mi
11:15 AM43 °FOvercast.12 mph81%30.33 "Hg10 mi
10:55 AM43 °FOvercast.9 mph81%30.33 "Hg10 mi
10:35 AM43 °FMore clouds than sun.12 mph81%30.33 "Hg10 mi
10:15 AM43 °FCloudy.13 mph81%30.34 "Hg10 mi
9:55 AM43 °FOvercast.10 mph81%30.34 "Hg10 mi
9:35 AM41 °FOvercast.No wind87%30.34 "Hg10 mi
9:15 AM41 °FOvercast.No wind87%30.33 "Hg10 mi
8:55 AM41 °FOvercast.No wind87%30.33 "Hg10 mi
8:35 AM39 °FOvercast.5 mph93%30.32 "Hg10 mi
8:15 AM39 °FOvercast.No wind93%30.32 "Hg10 mi
7:55 AM39 °FOvercast.No wind87%30.31 "Hg10 mi
7:35 AM39 °FPassing clouds.No wind87%30.31 "Hg10 mi
7:15 AM37 °FPassing clouds.No wind93%30.32 "Hg10 mi
6:55 AM37 °FOvercast.No wind93%30.32 "Hg10 mi
6:35 AM37 °FOvercast.No wind93%30.33 "Hg10 mi
6:15 AM37 °FOvercast.No wind93%30.32 "Hg10 mi
5:55 AM37 °FMostly cloudy.No wind93%30.32 "Hg10 mi
5:35 AM39 °FOvercast.No wind87%30.33 "Hg10 mi
5:15 AM37 °FPassing clouds.No wind93%30.34 "Hg10 mi
Weather by CustomWeather, © 2014

See weather overviewHow to use our weather pages